Location: Unspecified
(0.0000°N, 0.0000°E)
Time: 20:01:50
(UTC+02:00)

Cosmos 773 Rocket - Visible Passes

Search period start: 24 October 2014 00:00
Search period end: 02 November 2014 23:00
Orbit: 746 x 779 km, 74.1° (Epoch: 23 October)

Date Brightness Start Highest point End Pass type
(mag) Time Alt. Az. Time Alt. Az. Time Alt. Az.
24 Oct 6.6 06:01:53 10° SSE 06:05:41 20° ESE 06:09:29 10° NE visible
25 Oct 4.2 07:03:36 10° SSW 07:08:37 49° WNW 07:13:40 10° N visible
26 Oct 4.1 05:24:44 10° S 05:29:56 76° ESE 05:35:10 10° NNE visible
27 Oct 5.6 04:46:33 10° SSE 04:51:16 35° ESE 04:55:59 10° NE visible
28 Oct 6.7 04:09:24 10° SE 04:12:34 16° ESE 04:15:44 10° ENE visible
28 Oct 4.8 05:49:45 10° SW 05:54:12 29° WNW 05:58:41 10° NNW visible
29 Oct 3.9 05:10:21 10° SSW 05:15:30 63° WNW 05:20:41 10° N visible
30 Oct 5.2 04:31:40 10° S 04:39:07 32° NE 04:41:59 10° NNE visible
